Weather History for Van, Turkey

Change the Weather History Date:

Friday, October 12, 2012

  Actual Average Record
Temperature  
Mean Temperature 56 °F -  
Max Temperature 64 °F 57 °F 75 °F (2001)
Min Temperature 48 °F 37 °F 34 °F (2013)
Degree Days  
Heating Degree Days 9    
Growing Degree Days 6 (Base 50)    
Moisture  
Dew Point 42 °F    
Average Humidity 56    
Maximum Humidity 82    
Minimum Humidity 36    
Precipitation  
Precipitation 0.00 in 0.06 in - ()
Sea Level Pressure  
Sea Level Pressure 30.07 in    
Wind  
Wind Speed 9 mph ()    
Max Wind Speed 20 mph    
Max Gust Speed -    
Visibility 6.2 miles    
Events      
Averages and records for this station are not official NWS values.
T = Trace of Precipitation, MM = Missing Value Source: Averaged Metar Reports

Daily Weather History Graph

Daily Weather History Graph

Search for Another Location

Airport:

Trip Planner

Search our weather history database for the weather conditions in past years. The results will help you decide how hot, cold, wet, or windy it might be!

Date:

Astronomy

Oct. 12, 2012 Rise Set
Actual Time 6:12 AM EEST 5:32 PM EEST
Civil Twilight 5:46 AM EEST 5:59 PM EEST
Nautical Twilight 5:15 AM EEST 6:29 PM EEST
Astronomical Twilight 4:44 AM EEST 7:00 PM EEST
Moon 2:34 AM EEST (10/12) 3:28 PM EEST (10/12)
Length of Visible Light 12h 12m
Length of Day
11h 19m
Waning Crescent, 13% of the Moon is Illuminated
Oct 12
Waning Crescent
Oct 15
New
Oct 22
First Quarter
Oct 29
Full
Nov 7
Last Quarter

Hourly Weather History & Observations

Time (EEST) Temp. Dew Point Humidity Pressure Visibility Wind Dir Wind Speed Gust Speed Precip Events Conditions
12:50 AM 55.4 °F 41.0 °F 58% 30.01 in 6.2 mi SSE 12.7 mph - N/A   Mostly Cloudy
1:50 AM 57.2 °F 39.2 °F 51% 30.01 in 6.2 mi SSE 9.2 mph - N/A   Scattered Clouds
3:00 AM 56 °F 39 °F 42%  in 6 mi SSE 9.2 mph - -   Partly Cloudy
3:50 AM 55.4 °F 39.2 °F 54% 30.01 in 6.2 mi SSE 8.1 mph - N/A   Partly Cloudy
4:50 AM 53.6 °F 39.2 °F 58% 30.04 in 6.2 mi SSE 8.1 mph - N/A   Partly Cloudy
5:50 AM 53.6 °F 41.0 °F 62% 30.01 in 6.2 mi SE 5.8 mph - N/A   Partly Cloudy
6:50 AM 55.4 °F 42.8 °F 63% 30.01 in 6.2 mi SSE 6.9 mph - N/A   Mostly Cloudy
7:50 AM 57.2 °F 42.8 °F 59% 30.04 in 6.2 mi SSE 8.1 mph - N/A   Mostly Cloudy
8:50 AM 59.0 °F 42.8 °F 55% 30.04 in 6.2 mi SSE 5.8 mph - N/A   Mostly Cloudy
9:00 AM 58 °F 43 °F 46%  in 6 mi SSE 5.8 mph - -   Mostly Cloudy
9:50 AM 62.6 °F 41.0 °F 45% 30.04 in 6.2 mi SW 4.6 mph - N/A   Mostly Cloudy
10:50 AM 62.6 °F 44.6 °F 52% 30.04 in 6.2 mi NNW 10.4 mph - N/A   Mostly Cloudy
11:50 AM 64.4 °F 42.8 °F 45% 30.04 in 6.2 mi WNW 13.8 mph - N/A   Mostly Cloudy
12:50 PM 62.6 °F 44.6 °F 52% 30.04 in 6.2 mi NW 16.1 mph - N/A   Mostly Cloudy
1:50 PM 62.6 °F 44.6 °F 52% 30.04 in 6.2 mi NW 13.8 mph - N/A   Mostly Cloudy
2:50 PM 62.6 °F 42.8 °F 48% 30.04 in 6.2 mi NW 19.6 mph - N/A   Mostly Cloudy
3:00 PM 63 °F 43 °F 36%  in 6 mi NW 19.6 mph - -   Partly Cloudy
3:50 PM 62.6 °F 44.6 °F 52% 30.06 in 6.2 mi WNW 19.6 mph - N/A   Mostly Cloudy
4:50 PM 59.0 °F 44.6 °F 59% 30.09 in 6.2 mi NW 18.4 mph - N/A   Mostly Cloudy
5:50 PM 59.0 °F 44.6 °F 59% 30.12 in 6.2 mi WNW 13.8 mph - N/A   Mostly Cloudy
6:50 PM 59.0 °F 42.8 °F 55% 30.12 in 6.2 mi WNW 13.8 mph - N/A   Mostly Cloudy
7:50 PM 59.0 °F 44.6 °F 59% 30.15 in 6.2 mi West 11.5 mph - N/A   Mostly Cloudy
8:50 PM 51.8 °F 41.0 °F 67% 30.15 in 6.2 mi ENE 6.9 mph - N/A   Mostly Cloudy
9:00 PM 52 °F 41 °F 56%  in 7 mi ENE 6.9 mph - -   Partly Cloudy
9:50 PM 48.2 °F 41.0 °F 76% 30.18 in 6.2 mi ENE 3.5 mph - N/A   Mostly Cloudy
10:50 PM 48.2 °F 42.8 °F 82% 30.18 in 6.2 mi ESE 3.5 mph - N/A   Mostly Cloudy
11:50 PM 48.2 °F 42.8 °F 82% 30.18 in 6.2 mi NNE 3.5 mph - N/A   Mostly Cloudy